TimeCST,TemperatureF,Dew PointF,Humidity,Sea Level PressureIn,VisibilityMPH,Wind Direction,Wind SpeedMPH,Gust SpeedMPH,PrecipitationIn,Events,Conditions,WindDirDegrees,DateUTC
12:00 AM,66,61,78,29.88,12,East,3.5,,,,,80,2014-03-07 06:00:00
12:00 AM,66.2,60.8,83,30.03,-9999.0,East,3.5,-,N/A,,Clear,80,2014-03-07 06:00:00
1:00 AM,64.4,60.8,88,30.03,-9999.0,East,3.5,-,N/A,,Clear,100,2014-03-07 07:00:00
2:00 AM,64.4,57.2,77,30.01,-9999.0,ENE,5.8,-,N/A,,Clear,60,2014-03-07 08:00:00
3:00 AM,63,57,75,29.85,12,NE,4.6,,,,,50,2014-03-07 09:00:00
3:00 AM,62.6,57.2,82,30.01,-9999.0,NE,4.6,-,N/A,,Clear,50,2014-03-07 09:00:00
4:00 AM,64.4,57.2,77,30.02,-9999.0,NNE,6.9,-,N/A,,Clear,30,2014-03-07 10:00:00
5:00 AM,64.4,57.2,77,30.02,-9999.0,East,4.6,-,N/A,,Clear,80,2014-03-07 11:00:00
6:00 AM,64,58,73,29.90,12,ENE,4.6,,,,,70,2014-03-07 12:00:00
6:00 AM,64.4,57.2,77,30.05,-9999.0,ENE,4.6,-,N/A,,Clear,70,2014-03-07 12:00:00
7:00 AM,68.0,59.0,73,30.06,6.2,ENE,8.1,-,N/A,,Partly Cloudy,60,2014-03-07 13:00:00
8:00 AM,75.2,60.8,61,30.07,6.2,East,10.4,-,N/A,,Partly Cloudy,80,2014-03-07 14:00:00
9:00 AM,77,58,42,29.90,12,ESE,11.5,,,,Scattered Clouds,110,2014-03-07 15:00:00
9:00 AM,77.0,59.0,54,30.07,6.2,ESE,11.5,23.0,N/A,,Partly Cloudy,110,2014-03-07 15:00:00
10:00 AM,80.6,53.6,39,30.06,6.2,ESE,18.4,-,N/A,,Partly Cloudy,110,2014-03-07 16:00:00
11:00 AM,82.4,48.2,30,30.04,6.2,ESE,20.7,-,N/A,,Partly Cloudy,110,2014-03-07 17:00:00
12:00 PM,85,44,14,29.82,12,East,11.5,,,,Scattered Clouds,80,2014-03-07 18:00:00
12:00 PM,84.2,44.6,25,30.01,6.2,East,11.5,23.0,N/A,,Partly Cloudy,80,2014-03-07 18:00:00
1:00 PM,86.0,46.4,25,29.98,6.2,East,18.4,-,N/A,,Partly Cloudy,100,2014-03-07 19:00:00
2:00 PM,86.0,51.8,31,29.96,6.2,East,13.8,-,N/A,,Partly Cloudy,100,2014-03-07 20:00:00
3:00 PM,82,62,42,29.78,12,SW,9.2,,,,,230,2014-03-07 21:00:00
3:00 PM,82.4,62.6,51,29.95,6.2,SW,9.2,-,N/A,,Partly Cloudy,230,2014-03-07 21:00:00
4:00 PM,82.4,64.4,54,29.95,6.2,WSW,12.7,-,N/A,,Partly Cloudy,240,2014-03-07 22:00:00
5:00 PM,78.8,64.4,61,29.97,6.2,WSW,11.5,-,N/A,,Scattered Clouds,240,2014-03-07 23:00:00
6:00 PM,74,66,71,29.85,12,WSW,8.1,,,,,240,2014-03-08 00:00:00
6:00 PM,75.2,66.2,73,30.00,6.2,WSW,8.1,-,N/A,,Scattered Clouds,240,2014-03-08 00:00:00
7:00 PM,71.6,66.2,83,30.02,6.2,WSW,5.8,-,N/A,,Partly Cloudy,240,2014-03-08 01:00:00
8:00 PM,71.6,60.8,69,30.05,6.2,SSE,4.6,-,N/A,,Partly Cloudy,160,2014-03-08 02:00:00
8:30 PM,71.6,59.0,64,30.06,6.2,East,8.1,-,N/A,,Partly Cloudy,100,2014-03-08 02:30:00
9:00 PM,70,60,62,29.88,12,East,5.8,,,,,90,2014-03-08 03:00:00
9:00 PM,69.8,59.0,68,30.06,-9999.0,East,5.8,-,N/A,,Clear,90,2014-03-08 03:00:00
10:00 PM,69.8,60.8,73,30.08,-9999.0,East,11.5,-,N/A,,Clear,100,2014-03-08 04:00:00
11:00 PM,69.8,57.2,64,30.07,-9999.0,East,11.5,-,N/A,,Clear,90,2014-03-08 05:00:00